SL-8 R/B

Satellite information

Favourite Embed

Satellite Type and Status

ROCKET BODYIN ORBIT

Key statistics

Satellite SL-8 R/B at a glance.

Uptime

16358

Days in orbit

Revolutions

≈ 15.0

Per day

Orbit

LEO

Low Earth Orbit

Inclination

82.9

Latest

Satellite identification and parameters

Extended collection of information and parameters for SL-8 R/B.

Object identification

Identified? True

Debris? False

Object name: SL-8 R/B

International designator: 1981-003B

Object number (NORAD): 12139

Object ID (CCSDS): 12139

Country: COMMONWEALTH OF INDEPENDENT STATES (CIS)

Current information (Y/N): Y

RCS size: LARGE

Orbital parameters

Period: 95.704 minutes

Inclination: 82.9328 deg

SMA: 6930.732 km

Apoapsis: 749.92 km

Periapsis: 355.274 km

RAAN: 50.6147 deg

Eccentricy: 0.02847074

Argument of periapsis: 272.3705 deg

Mean anomaly: 84.4957 deg

Mean motion: 15.0464518 rev/day

Mean motion (dot): 0.00024162 rev/day2

B* drag term: 0.00067834235 1/REarth

Two-line elements (TLE)

Creation date: Oct. 30, 2025, 3:32 a.m.

Reference frame: TEME

Reference center: EARTH

Epoch: Oct. 29, 2025, 5:57 p.m. UTC

TLE line 0: 0 SL-8 R/B

TLE line 1: 1 12139U 81003B 25302.74824075 .00024162 00000-0 67834-3 0 9993

TLE line 2: 2 12139 82.9328 50.6147 0284707 272.3705 84.4957 15.04645180294946

Live tracking on map

Real-time ground track for satellite SL-8 R/B.

In-orbit conjunctions

A list of the most updated potential collisions computed for object SL-8 R/B.

Target Orbit TCA Probability of collision Miss distance Type
FENGYUN 1C DEB SSO 2025-07-25 08:05:35 0.000370097 184.0 (m) DEBRIS
DELTA 1 DEB SSO 2024-10-07 09:28:55 0.0002338413 223.0 (m) DEBRIS

Associated space launch

Film-return reconnaissance satellite

SL-8 R/B was lifted into orbit during the mission ‘Soyuz U | Zenit-4MT 20’, on board a Soyuz U space rocket.

The launch took place on Jan. 16, 1981, noon from 41/1.

For more information about the launch, click the button.

Launch to space Soyuz U | Zenit-4MT 20
Soyuz U | Zenit-4MT 20

Agency: N/A

Status: Launch Successful

Launch date: Jan. 16, 1981, noon UTC

Rocket: Soyuz U

Launch pad: 41/1

Location: Plesetsk Cosmodrome, Russian Federation

...

Latest news about this satellite

There are no fresh news available about this satellite. Check back as we update our databases every day.


Newsletter sign-up

Weekly statistics, charts and insights to help you stay on top of the space industry.